ELECTRON KICK STAGE R/B, 55908

Orbit data source: Space-Track

ELECTRON KICK STAGE R/B, 55908 is space debris in LEO originally from a launch on Thu, 16 Mar 2023 UTC launched from the Wallops Island (WLPIS). Debris objects in space refer to the collection of defunct objects orbiting the Earth. Examples of debris include non-operational satellites, rocket bodies, and fragments generated from explosions, collisions, or faulty payload assembly.

Loading next visibility...
Identifier
55908, 2023-035A
Orbit
LEO
Country
Flag of USUS
Related business
Manufacturer
Rocket Lab
Mission
Spacecraft
Bus & Motor
KICK STAGE, CURIE
Mass
~40 kg wet, ~40 kg dry
Launch date (UTC)
2023-03-16 (3 years ago)
Launch vehicle
Unknown
Launch site
Wallops Island (WLPIS)
Object type
Payload
Rocket body
Debris
Shape & HBR
Trunc Cone, 0.7 m
Radar Cross Section
0.760 m², Large (>1 m²)

Expand to show TLE details & history
Last TLE update: 2 days ago

TLE from 2 days ago
0 ELECTRON KICK STAGE R/B
1 55908U 23035A   26171.27036168  .00005066  00000-0  31401-3 0  9999
2 55908  44.1745 114.6421 0002238 262.8057  97.2552 15.10787076178837
Epoch: 2026-06-20T06:29Z
TLE epoch observation values (Epoch: 2026-06-20T06:29:19.249Z)
Latitude
-0.00003°
Longitude
108.82447°
Altitude
533.901 km
Speed
7.597 km/s
True Right ascension
07h 38m 34s
True Declination
0° 00' 00"
Sunlit
Object was in daylight at epoch
Visualization orbit readout
Latitude
Unknown
Longitude
Unknown
Altitude
Unknown
Speed
Unknown
Apparent Right ascension
Unknown
Apparent Declination
Unknown
Sunlit
N/A
Visualization observer readout
Local Sidereal Time
21:26:05
Azimuth
Unknown
Elevation
Unknown
Doppler factor
Unknown
Orbital elements
Apogee altitude
537.081 km
Perigee altitude
533.986 km
Semi-major axis
6,913.671 km
Eccentricity
0.00022
Inclination
44.1745°
RAAN
114.6421°
Arg. of periapsis
262.8057°
True anomaly
97.28064°
Mean anomaly
97.2552°
Eccentric anomaly
97.26792°
Mean motion
3.77555 °/min
Orbital period
95.35 mins
BSTAR
0.00031401
Loading maneuver chart data...
Computing Atmospheric mass density...
Loading historical data...
Loading historical data...
Loading historical data...
Loading historical data...
Loading historical data...
Loading historical data...
Loading historical data...

Documentation

Showing up to 5 results
|